Time,TemperatureF,DewpointF,PressureIn,WindDirection,WindDirectionDegrees,WindSpeedMPH,WindSpeedGustMPH,Humidity,HourlyPrecipIn,Conditions,Clouds,dailyrainin,SoftwareType,DateUTC
2013-06-26 07:25:00,71.2,0.0,29.96,North,0,2.0,4.0,0,0.00,,,0.00,Weather View 32 v70,2013-06-26 11:25:00,
2013-06-26 07:26:00,71.2,0.0,29.95,North,0,1.0,4.0,0,0.00,,,0.00,Weather View 32 v70,2013-06-26 11:26:00,
2013-06-26 07:27:00,71.4,0.0,29.96,South,180,3.0,6.0,0,0.00,,,0.00,Weather View 32 v70,2013-06-26 11:27:00,
2013-06-26 07:32:00,71.4,0.0,29.95,West,270,1.0,6.0,0,0.00,,,0.00,Weather View 32 v70,2013-06-26 11:32:00,
2013-06-26 07:37:00,72.0,0.0,29.95,North,0,3.0,6.0,0,0.00,,,0.00,Weather View 32 v70,2013-06-26 11:37:00,
2013-06-26 07:42:00,72.0,0.0,29.96,North,0,4.0,8.0,0,0.00,,,0.00,Weather View 32 v70,2013-06-26 11:42:00,
2013-06-26 07:47:00,72.3,0.0,29.96,South,180,7.0,10.0,0,0.00,,,0.00,Weather View 32 v70,2013-06-26 11:47:00,
2013-06-26 07:52:00,72.7,0.0,29.95,North,0,0.0,10.0,0,0.00,,,0.00,Weather View 32 v70,2013-06-26 11:52:00,
2013-06-26 07:57:00,72.9,0.0,29.97,South,180,5.0,10.0,0,0.00,,,0.00,Weather View 32 v70,2013-06-26 11:57:00,
2013-06-26 08:03:00,73.0,0.0,29.97,South,180,2.0,10.0,0,0.00,,,0.00,Weather View 32 v70,2013-06-26 12:03:00,
2013-06-26 08:08:00,73.2,0.0,29.96,North,0,2.0,10.0,0,0.00,,,0.00,Weather View 32 v70,2013-06-26 12:08:00,
2013-06-26 08:13:00,73.6,0.0,29.96,North,0,1.0,10.0,0,0.00,,,0.00,Weather View 32 v70,2013-06-26 12:13:00,
2013-06-26 08:18:00,73.9,0.0,29.96,South,180,3.0,10.0,0,0.00,,,0.00,Weather View 32 v70,2013-06-26 12:18:00,
2013-06-26 08:23:00,74.3,0.0,29.97,South,180,4.0,10.0,0,0.00,,,0.00,Weather View 32 v70,2013-06-26 12:23:00,
2013-06-26 08:28:00,74.8,0.0,29.96,West,270,1.0,10.0,0,0.00,,,0.00,Weather View 32 v70,2013-06-26 12:28:00,
2013-06-26 08:33:00,75.2,0.0,29.96,West,270,1.0,10.0,0,0.00,,,0.00,Weather View 32 v70,2013-06-26 12:33:00,
2013-06-26 08:38:00,75.7,0.0,29.97,North,0,3.0,10.0,0,0.00,,,0.00,Weather View 32 v70,2013-06-26 12:38:00,
2013-06-26 08:43:00,75.9,0.0,29.96,West,270,0.0,10.0,0,0.00,,,0.00,Weather View 32 v70,2013-06-26 12:43:00,
2013-06-26 08:48:00,76.3,0.0,29.96,North,0,1.0,9.0,0,0.00,,,0.00,Weather View 32 v70,2013-06-26 12:48:00,
2013-06-26 08:53:00,76.8,0.0,29.96,South,180,0.0,9.0,0,0.00,,,0.00,Weather View 32 v70,2013-06-26 12:53:00,
2013-06-26 08:58:00,77.4,0.0,29.95,West,270,1.0,9.0,0,0.00,,,0.00,Weather View 32 v70,2013-06-26 12:58:00,
2013-06-26 09:03:00,77.4,0.0,29.95,North,0,2.0,9.0,0,0.00,,,0.00,Weather View 32 v70,2013-06-26 13:03:00,
2013-06-26 09:08:00,77.7,0.0,29.94,West,270,5.0,9.0,0,0.00,,,0.00,Weather View 32 v70,2013-06-26 13:08:00,
2013-06-26 09:13:00,77.9,0.0,29.95,South,180,6.0,9.0,0,0.00,,,0.00,Weather View 32 v70,2013-06-26 13:13:00,
2013-06-26 09:19:00,78.4,0.0,29.95,South,180,4.0,9.0,0,0.00,,,0.00,Weather View 32 v70,2013-06-26 13:19:00,
2013-06-26 09:24:00,79.0,0.0,29.94,South,180,2.0,8.0,0,0.00,,,0.00,Weather View 32 v70,2013-06-26 13:24:00,
2013-06-26 09:29:00,79.5,0.0,29.95,West,270,4.0,9.0,0,0.00,,,0.00,Weather View 32 v70,2013-06-26 13:29:00,
2013-06-26 09:34:00,79.9,0.0,29.95,North,0,2.0,9.0,0,0.00,,,0.00,Weather View 32 v70,2013-06-26 13:34:00,
2013-06-26 09:39:00,81.0,0.0,29.94,South,180,6.0,9.0,0,0.00,,,0.00,Weather View 32 v70,2013-06-26 13:39:00,
2013-06-26 09:44:00,81.7,0.0,29.94,South,180,4.0,9.0,0,0.00,,,0.00,Weather View 32 v70,2013-06-26 13:44:00,
2013-06-26 09:49:00,82.6,0.0,29.97,NW,315,0.0,9.0,0,0.00,,,0.00,Weather View 32 v70,2013-06-26 13:49:00,
2013-06-26 09:54:00,84.0,0.0,29.93,South,180,3.0,9.0,0,0.00,,,0.00,Weather View 32 v70,2013-06-26 13:54:00,
2013-06-26 09:59:00,84.7,0.0,29.94,North,0,4.0,11.0,0,0.00,,,0.00,Weather View 32 v70,2013-06-26 13:59:00,
2013-06-26 10:05:00,85.8,0.0,29.94,North,0,5.0,11.0,0,0.00,,,0.00,Weather View 32 v70,2013-06-26 14:05:00,
2013-06-26 10:10:00,86.4,0.0,29.95,West,270,4.0,11.0,0,0.00,,,0.00,Weather View 32 v70,2013-06-26 14:10:00,
2013-06-26 10:15:00,86.7,0.0,29.94,West,270,4.0,11.0,0,0.00,,,0.00,Weather View 32 v70,2013-06-26 14:15:00,
2013-06-26 10:20:00,87.1,0.0,29.93,West,270,0.0,11.0,0,0.00,,,0.00,Weather View 32 v70,2013-06-26 14:20:00,
2013-06-26 10:25:00,87.6,0.0,29.92,West,270,0.0,11.0,0,0.00,,,0.00,Weather View 32 v70,2013-06-26 14:25:00,
2013-06-26 10:30:00,88.0,0.0,29.95,WNW,293,0.0,11.0,0,0.00,,,0.00,Weather View 32 v70,2013-06-26 14:30:00,
2013-06-26 10:35:00,88.2,0.0,29.93,SSE,158,6.0,11.0,0,0.00,,,0.00,Weather View 32 v70,2013-06-26 14:35:00,
2013-06-26 10:40:00,88.5,0.0,29.92,South,180,6.0,11.0,0,0.00,,,0.00,Weather View 32 v70,2013-06-26 14:40:00,
2013-06-26 10:45:00,88.2,0.0,29.94,North,0,5.0,11.0,0,0.00,,,0.00,Weather View 32 v70,2013-06-26 14:45:00,
2013-06-26 10:50:00,89.1,0.0,29.92,South,180,3.0,11.0,0,0.00,,,0.00,Weather View 32 v70,2013-06-26 14:50:00,
2013-06-26 10:55:00,89.2,0.0,29.93,North,0,4.0,11.0,0,0.00,,,0.00,Weather View 32 v70,2013-06-26 14:55:00,
2013-06-26 11:00:00,89.8,0.0,29.92,North,0,6.0,11.0,0,0.00,,,0.00,Weather View 32 v70,2013-06-26 15:00:00,
2013-06-26 11:05:00,90.0,0.0,29.93,North,0,2.0,11.0,0,0.00,,,0.00,Weather View 32 v70,2013-06-26 15:05:00,
2013-06-26 11:10:00,90.3,0.0,29.92,West,270,0.0,11.0,0,0.00,,,0.00,Weather View 32 v70,2013-06-26 15:10:00,
2013-06-26 11:15:00,90.9,0.0,29.92,South,180,5.0,11.0,0,0.00,,,0.00,Weather View 32 v70,2013-06-26 15:15:00,
2013-06-26 11:20:00,91.0,0.0,29.93,SSE,158,2.0,11.0,0,0.00,,,0.00,Weather View 32 v70,2013-06-26 15:20:00,
2013-06-26 11:25:00,91.4,0.0,29.92,North,0,3.0,11.0,0,0.00,,,0.00,Weather View 32 v70,2013-06-26 15:25:00,
2013-06-26 11:30:00,91.2,0.0,29.95,North,0,3.0,11.0,0,0.00,,,0.00,Weather View 32 v70,2013-06-26 15:30:00,
2013-06-26 11:36:00,91.2,0.0,29.94,South,180,2.0,9.0,0,0.00,,,0.00,Weather View 32 v70,2013-06-26 15:36:00,
2013-06-26 11:41:00,90.3,0.0,29.94,South,180,8.0,9.0,0,0.00,,,0.00,Weather View 32 v70,2013-06-26 15:41:00,
2013-06-26 11:46:00,90.9,0.0,29.98,NNE,23,0.0,10.0,0,0.00,,,0.00,Weather View 32 v70,2013-06-26 15:46:00,
2013-06-26 11:51:00,90.9,0.0,29.97,SSE,158,6.0,10.0,0,0.00,,,0.00,Weather View 32 v70,2013-06-26 15:51:00,
2013-06-26 11:56:00,91.2,0.0,29.96,West,270,1.0,10.0,0,0.00,,,0.00,Weather View 32 v70,2013-06-26 15:56:00,
2013-06-26 12:01:00,91.8,0.0,29.93,West,270,0.0,10.0,0,0.00,,,0.00,Weather View 32 v70,2013-06-26 16:01:00,
2013-06-26 12:06:00,91.6,0.0,29.95,WNW,293,0.0,10.0,0,0.00,,,0.00,Weather View 32 v70,2013-06-26 16:06:00,
2013-06-26 12:12:00,91.8,0.0,29.93,South,180,3.0,10.0,0,0.00,,,0.00,Weather View 32 v70,2013-06-26 16:12:00,
2013-06-26 12:17:00,91.9,0.0,29.92,West,270,0.0,10.0,0,0.00,,,0.00,Weather View 32 v70,2013-06-26 16:17:00,
2013-06-26 12:22:00,91.8,0.0,29.93,SSE,158,6.0,10.0,0,0.00,,,0.00,Weather View 32 v70,2013-06-26 16:22:00,
2013-06-26 12:27:00,92.5,0.0,29.93,West,270,0.0,12.0,0,0.00,,,0.00,Weather View 32 v70,2013-06-26 16:27:00,
2013-06-26 12:32:00,92.8,0.0,29.93,North,0,4.0,12.0,0,0.00,,,0.00,Weather View 32 v70,2013-06-26 16:32:00,
2013-06-26 12:38:00,92.8,0.0,29.96,West,270,0.0,12.0,0,0.00,,,0.00,Weather View 32 v70,2013-06-26 16:38:00,
2013-06-26 12:43:00,93.4,0.0,29.93,West,270,0.0,12.0,0,0.00,,,0.00,Weather View 32 v70,2013-06-26 16:43:00,
2013-06-26 12:48:00,93.7,0.0,29.92,SSE,158,6.0,12.0,0,0.00,,,0.00,Weather View 32 v70,2013-06-26 16:48:00,
2013-06-26 12:53:00,93.2,0.0,29.92,West,270,0.0,12.0,0,0.00,,,0.00,Weather View 32 v70,2013-06-26 16:53:00,
2013-06-26 12:58:00,92.7,0.0,29.92,West,270,2.0,12.0,0,0.00,,,0.00,Weather View 32 v70,2013-06-26 16:58:00,
2013-06-26 13:03:00,93.4,0.0,29.92,West,270,0.0,12.0,0,0.00,,,0.00,Weather View 32 v70,2013-06-26 17:03:00,
2013-06-26 13:08:00,93.2,0.0,29.93,West,270,2.0,12.0,0,0.00,,,0.00,Weather View 32 v70,2013-06-26 17:08:00,
2013-06-26 13:13:00,93.7,0.0,29.95,WNW,293,2.0,12.0,0,0.00,,,0.00,Weather View 32 v70,2013-06-26 17:13:00,
2013-06-26 13:18:00,93.0,0.0,29.99,WNW,293,2.0,12.0,0,0.00,,,0.00,Weather View 32 v70,2013-06-26 17:18:00,
2013-06-26 13:23:00,91.8,0.0,29.96,West,270,0.0,12.0,0,0.00,,,0.00,Weather View 32 v70,2013-06-26 17:23:00,
2013-06-26 13:28:00,92.3,0.0,29.94,WNW,293,0.0,9.0,0,0.00,,,0.00,Weather View 32 v70,2013-06-26 17:28:00,
2013-06-26 13:33:00,92.8,0.0,29.92,North,0,7.0,11.0,0,0.00,,,0.00,Weather View 32 v70,2013-06-26 17:33:00,
2013-06-26 13:38:00,92.8,0.0,29.93,North,0,1.0,11.0,0,0.00,,,0.00,Weather View 32 v70,2013-06-26 17:38:00,
2013-06-26 13:43:00,93.9,0.0,29.92,West,270,1.0,11.0,0,0.00,,,0.00,Weather View 32 v70,2013-06-26 17:43:00,
2013-06-26 13:49:00,94.6,0.0,29.91,North,0,6.0,11.0,0,0.00,,,0.00,Weather View 32 v70,2013-06-26 17:49:00,
2013-06-26 13:54:00,96.3,0.0,29.91,South,180,7.0,11.0,0,0.00,,,0.00,Weather View 32 v70,2013-06-26 17:54:00,
2013-06-26 13:59:00,95.4,0.0,29.90,WNW,293,1.0,11.0,0,0.00,,,0.00,Weather View 32 v70,2013-06-26 17:59:00,
2013-06-26 14:04:00,95.4,0.0,29.91,West,270,1.0,11.0,0,0.00,,,0.00,Weather View 32 v70,2013-06-26 18:04:00,
2013-06-26 14:09:00,95.9,0.0,29.89,South,180,2.0,11.0,0,0.00,,,0.00,Weather View 32 v70,2013-06-26 18:09:00,
2013-06-26 14:14:00,95.0,0.0,29.92,West,270,1.0,11.0,0,0.00,,,0.00,Weather View 32 v70,2013-06-26 18:14:00,
2013-06-26 14:19:00,95.5,0.0,29.89,West,270,0.0,11.0,0,0.00,,,0.00,Weather View 32 v70,2013-06-26 18:19:00,
2013-06-26 14:24:00,95.5,0.0,29.89,West,270,0.0,11.0,0,0.00,,,0.00,Weather View 32 v70,2013-06-26 18:24:00,
2013-06-26 14:29:00,95.5,0.0,29.88,WNW,293,1.0,11.0,0,0.00,,,0.00,Weather View 32 v70,2013-06-26 18:29:00,
2013-06-26 14:34:00,94.1,0.0,29.88,South,180,4.0,9.0,0,0.00,,,0.00,Weather View 32 v70,2013-06-26 18:34:00,
2013-06-26 14:39:00,93.7,0.0,29.87,West,270,4.0,9.0,0,0.00,,,0.00,Weather View 32 v70,2013-06-26 18:39:00,
2013-06-26 14:45:00,94.8,0.0,29.87,West,270,0.0,10.0,0,0.00,,,0.00,Weather View 32 v70,2013-06-26 18:45:00,
2013-06-26 14:50:00,95.5,0.0,29.88,West,270,0.0,10.0,0,0.00,,,0.00,Weather View 32 v70,2013-06-26 18:50:00,
2013-06-26 14:55:00,95.7,0.0,29.86,West,270,0.0,11.0,0,0.00,,,0.00,Weather View 32 v70,2013-06-26 18:55:00,
2013-06-26 15:00:00,95.7,0.0,29.87,North,0,4.0,11.0,0,0.00,,,0.00,Weather View 32 v70,2013-06-26 19:00:00,
2013-06-26 15:05:00,95.4,0.0,29.86,North,0,3.0,11.0,0,0.00,,,0.00,Weather View 32 v70,2013-06-26 19:05:00,
2013-06-26 15:10:00,94.5,0.0,29.88,WNW,293,0.0,11.0,0,0.00,,,0.00,Weather View 32 v70,2013-06-26 19:10:00,
2013-06-26 15:15:00,92.5,0.0,29.90,South,180,5.0,11.0,0,0.00,,,0.00,Weather View 32 v70,2013-06-26 19:15:00,
2013-06-26 15:20:00,93.7,0.0,29.85,South,180,8.0,11.0,0,0.00,,,0.00,Weather View 32 v70,2013-06-26 19:20:00,
2013-06-26 15:25:00,94.3,0.0,29.85,West,270,0.0,11.0,0,0.00,,,0.00,Weather View 32 v70,2013-06-26 19:25:00,
2013-06-26 15:30:00,92.5,0.0,29.84,WNW,293,0.0,11.0,0,0.00,,,0.00,Weather View 32 v70,2013-06-26 19:30:00,
2013-06-26 15:35:00,93.7,0.0,29.85,North,0,5.0,11.0,0,0.00,,,0.00,Weather View 32 v70,2013-06-26 19:35:00,
2013-06-26 15:40:00,94.5,0.0,29.85,North,0,3.0,11.0,0,0.00,,,0.00,Weather View 32 v70,2013-06-26 19:40:00,
2013-06-26 15:46:00,94.5,0.0,29.85,WNW,293,1.0,11.0,0,0.00,,,0.00,Weather View 32 v70,2013-06-26 19:46:00,
2013-06-26 15:51:00,94.3,0.0,29.84,North,0,1.0,11.0,0,0.00,,,0.00,Weather View 32 v70,2013-06-26 19:51:00,
2013-06-26 15:56:00,92.5,0.0,29.85,West,270,5.0,10.0,0,0.00,,,0.00,Weather View 32 v70,2013-06-26 19:56:00,
2013-06-26 16:01:00,92.5,0.0,29.84,West,270,0.0,10.0,0,0.00,,,0.00,Weather View 32 v70,2013-06-26 20:01:00,
2013-06-26 16:06:00,93.2,0.0,29.84,West,270,0.0,10.0,0,0.00,,,0.00,Weather View 32 v70,2013-06-26 20:06:00,
2013-06-26 16:12:00,93.6,0.0,29.83,West,270,0.0,10.0,0,0.00,,,0.00,Weather View 32 v70,2013-06-26 20:12:00,
2013-06-26 16:17:00,93.2,0.0,29.87,West,270,0.0,10.0,0,0.00,,,0.00,Weather View 32 v70,2013-06-26 20:17:00,
2013-06-26 16:22:00,93.0,0.0,29.84,South,180,6.0,10.0,0,0.00,,,0.00,Weather View 32 v70,2013-06-26 20:22:00,
2013-06-26 16:27:00,92.8,0.0,29.85,West,270,0.0,10.0,0,0.00,,,0.00,Weather View 32 v70,2013-06-26 20:27:00,
2013-06-26 16:32:00,93.6,0.0,29.83,West,270,0.0,10.0,0,0.00,,,0.00,Weather View 32 v70,2013-06-26 20:32:00,
2013-06-26 16:38:00,93.2,0.0,29.84,West,270,0.0,10.0,0,0.00,,,0.00,Weather View 32 v70,2013-06-26 20:38:00,
2013-06-26 16:43:00,92.8,0.0,29.84,North,0,2.0,10.0,0,0.00,,,0.00,Weather View 32 v70,2013-06-26 20:43:00,
2013-06-26 16:48:00,92.7,0.0,29.82,West,270,0.0,10.0,0,0.00,,,0.00,Weather View 32 v70,2013-06-26 20:48:00,
2013-06-26 16:53:00,92.7,0.0,29.84,West,270,1.0,10.0,0,0.00,,,0.00,Weather View 32 v70,2013-06-26 20:53:00,
2013-06-26 16:58:00,92.5,0.0,29.83,South,180,3.0,10.0,0,0.00,,,0.00,Weather View 32 v70,2013-06-26 20:58:00,
2013-06-26 17:03:00,92.3,0.0,29.85,West,270,3.0,10.0,0,0.00,,,0.00,Weather View 32 v70,2013-06-26 21:03:00,
2013-06-26 17:08:00,91.6,0.0,29.84,West,270,0.0,10.0,0,0.00,,,0.00,Weather View 32 v70,2013-06-26 21:08:00,
2013-06-26 17:13:00,90.5,0.0,29.86,North,0,4.0,10.0,0,0.00,,,0.00,Weather View 32 v70,2013-06-26 21:13:00,
2013-06-26 17:19:00,91.0,0.0,29.86,North,0,3.0,10.0,0,0.00,,,0.00,Weather View 32 v70,2013-06-26 21:19:00,
2013-06-26 17:24:00,91.4,0.0,29.85,South,180,8.0,10.0,0,0.00,,,0.00,Weather View 32 v70,2013-06-26 21:24:00,
2013-06-26 17:29:00,91.0,0.0,29.86,West,270,12.0,12.0,0,0.00,,,0.00,Weather View 32 v70,2013-06-26 21:29:00,
2013-06-26 17:34:00,90.3,0.0,29.85,West,270,3.0,12.0,0,0.00,,,0.00,Weather View 32 v70,2013-06-26 21:34:00,
2013-06-26 17:39:00,90.1,0.0,29.85,South,180,4.0,12.0,0,0.00,,,0.00,Weather View 32 v70,2013-06-26 21:39:00,
2013-06-26 17:44:00,89.6,0.0,29.85,North,0,4.0,12.0,0,0.00,,,0.00,Weather View 32 v70,2013-06-26 21:44:00,
2013-06-26 17:49:00,89.1,0.0,29.85,South,180,6.0,12.0,0,0.00,,,0.00,Weather View 32 v70,2013-06-26 21:49:00,
2013-06-26 17:54:00,88.9,0.0,29.85,North,0,3.0,12.0,0,0.00,,,0.00,Weather View 32 v70,2013-06-26 21:54:00,
2013-06-26 17:59:00,88.5,0.0,29.85,West,270,1.0,12.0,0,0.00,,,0.00,Weather View 32 v70,2013-06-26 21:59:00,
2013-06-26 18:04:00,87.6,0.0,29.85,West,270,1.0,12.0,0,0.00,,,0.00,Weather View 32 v70,2013-06-26 22:04:00,
2013-06-26 18:09:00,85.5,0.0,29.93,WNW,293,3.0,12.0,0,0.00,,,0.00,Weather View 32 v70,2013-06-26 22:09:00,
2013-06-26 18:15:00,82.9,0.0,29.96,WNW,293,6.0,12.0,0,0.00,,,0.00,Weather View 32 v70,2013-06-26 22:15:00,
2013-06-26 18:20:00,79.7,0.0,29.98,WNW,293,2.0,16.0,0,0.00,,,0.00,Weather View 32 v70,2013-06-26 22:20:00,
2013-06-26 18:25:00,72.1,0.0,29.98,NW,315,7.0,16.0,0,0.26,,,0.27,Weather View 32 v70,2013-06-26 22:25:00,
2013-06-26 18:30:00,69.1,0.0,29.98,WNW,293,0.0,17.0,0,0.48,,,0.48,Weather View 32 v70,2013-06-26 22:30:00,
2013-06-26 18:35:00,69.3,0.0,29.96,West,270,0.0,17.0,0,0.62,,,0.62,Weather View 32 v70,2013-06-26 22:35:00,
2013-06-26 18:45:00,70.0,0.0,29.93,West,270,1.0,17.0,0,0.68,,,0.68,Weather View 32 v70,2013-06-26 22:45:00,
2013-06-26 18:50:00,69.8,0.0,29.95,SE,135,2.0,17.0,0,0.70,,,0.70,Weather View 32 v70,2013-06-26 22:50:00,
2013-06-26 18:55:00,70.5,0.0,29.90,North,0,4.0,17.0,0,0.71,,,0.71,Weather View 32 v70,2013-06-26 22:55:00,
2013-06-26 19:00:00,70.9,0.0,29.92,West,270,0.0,17.0,0,0.72,,,0.72,Weather View 32 v70,2013-06-26 23:00:00,
2013-06-26 19:05:00,70.3,0.0,29.92,South,180,0.0,17.0,0,0.73,,,0.73,Weather View 32 v70,2013-06-26 23:05:00,
2013-06-26 19:10:00,70.0,0.0,29.95,West,270,0.0,17.0,0,0.74,,,0.74,Weather View 32 v70,2013-06-26 23:10:00,
2013-06-26 19:15:00,69.8,0.0,29.92,North,0,1.0,17.0,0,0.74,,,0.74,Weather View 32 v70,2013-06-26 23:15:00,
2013-06-26 19:20:00,70.3,0.0,29.92,North,0,0.0,17.0,0,0.74,,,0.74,Weather View 32 v70,2013-06-26 23:20:00,
2013-06-26 19:25:00,70.5,0.0,29.92,North,0,3.0,17.0,0,0.48,,,0.74,Weather View 32 v70,2013-06-26 23:25:00,
2013-06-26 19:30:00,70.3,0.0,29.92,West,270,1.0,9.0,0,0.26,,,0.74,Weather View 32 v70,2013-06-26 23:30:00,
2013-06-26 19:35:00,70.0,0.0,29.93,West,270,0.0,7.0,0,0.12,,,0.74,Weather View 32 v70,2013-06-26 23:35:00,
2013-06-26 19:40:00,69.8,0.0,29.91,West,270,0.0,7.0,0,0.09,,,0.74,Weather View 32 v70,2013-06-26 23:40:00,
2013-06-26 19:46:00,70.0,0.0,29.93,West,270,0.0,7.0,0,0.07,,,0.75,Weather View 32 v70,2013-06-26 23:46:00,
2013-06-26 19:51:00,70.3,0.0,29.91,West,270,0.0,7.0,0,0.05,,,0.75,Weather View 32 v70,2013-06-26 23:51:00,
2013-06-26 19:56:00,69.6,0.0,29.91,West,270,0.0,7.0,0,0.11,,,0.82,Weather View 32 v70,2013-06-26 23:56:00,
2013-06-26 20:01:00,70.2,0.0,29.92,West,270,0.0,7.0,0,0.10,,,0.82,Weather View 32 v70,2013-06-27 00:01:00,
2013-06-26 20:06:00,70.5,0.0,29.91,West,270,0.0,7.0,0,0.09,,,0.83,Weather View 32 v70,2013-06-27 00:06:00,
2013-06-26 20:11:00,70.7,0.0,29.90,West,270,0.0,7.0,0,0.10,,,0.84,Weather View 32 v70,2013-06-27 00:11:00,
2013-06-26 20:16:00,70.2,0.0,29.90,West,270,0.0,7.0,0,0.10,,,0.84,Weather View 32 v70,2013-06-27 00:16:00,
2013-06-26 20:21:00,70.5,0.0,29.90,West,270,0.0,5.0,0,0.11,,,0.85,Weather View 32 v70,2013-06-27 00:21:00,
2013-06-26 20:26:00,70.2,0.0,29.92,West,270,0.0,4.0,0,0.12,,,0.86,Weather View 32 v70,2013-06-27 00:26:00,
2013-06-26 20:31:00,70.3,0.0,29.89,West,270,0.0,4.0,0,0.13,,,0.87,Weather View 32 v70,2013-06-27 00:31:00,
2013-06-26 20:37:00,70.0,0.0,29.89,West,270,0.0,3.0,0,0.14,,,0.88,Weather View 32 v70,2013-06-27 00:37:00,
2013-06-26 20:42:00,70.2,0.0,29.89,West,270,0.0,1.0,0,0.15,,,0.89,Weather View 32 v70,2013-06-27 00:42:00,
2013-06-26 20:47:00,69.8,0.0,29.93,WNW,293,0.0,1.0,0,0.14,,,0.90,Weather View 32 v70,2013-06-27 00:47:00,
2013-06-26 20:53:00,69.8,0.0,29.97,WNW,293,0.0,1.0,0,0.15,,,0.90,Weather View 32 v70,2013-06-27 00:53:00,
2013-06-26 20:57:00,69.6,0.0,29.96,West,270,0.0,1.0,0,0.08,,,0.90,Weather View 32 v70,2013-06-27 00:57:00,
2013-06-26 21:02:00,69.8,0.0,29.89,West,270,0.0,1.0,0,0.08,,,0.90,Weather View 32 v70,2013-06-27 01:02:00,
2013-06-26 21:08:00,69.8,0.0,29.88,West,270,0.0,1.0,0,0.06,,,0.90,Weather View 32 v70,2013-06-27 01:08:00,
2013-06-26 21:13:00,69.8,0.0,29.87,West,270,0.0,1.0,0,0.07,,,0.91,Weather View 32 v70,2013-06-27 01:13:00,
2013-06-26 21:18:00,70.0,0.0,29.88,West,270,0.0,1.0,0,0.07,,,0.91,Weather View 32 v70,2013-06-27 01:18:00,
2013-06-26 21:23:00,69.8,0.0,29.88,West,270,0.0,1.0,0,0.06,,,0.91,Weather View 32 v70,2013-06-27 01:23:00,
2013-06-26 21:28:00,70.0,0.0,29.88,North,0,1.0,3.0,0,0.05,,,0.91,Weather View 32 v70,2013-06-27 01:28:00,
2013-06-26 21:34:00,69.8,0.0,29.89,North,0,2.0,4.0,0,0.03,,,0.91,Weather View 32 v70,2013-06-27 01:34:00,
2013-06-26 21:39:00,69.4,0.0,29.97,WNW,293,0.0,4.0,0,0.03,,,0.91,Weather View 32 v70,2013-06-27 01:39:00,
2013-06-26 21:44:00,69.6,0.0,29.90,South,180,3.0,7.0,0,0.02,,,0.91,Weather View 32 v70,2013-06-27 01:44:00,
2013-06-26 21:49:00,69.4,0.0,29.90,West,270,3.0,8.0,0,0.01,,,0.91,Weather View 32 v70,2013-06-27 01:49:00,
2013-06-26 21:54:00,69.4,0.0,29.91,South,180,2.0,8.0,0,0.01,,,0.91,Weather View 32 v70,2013-06-27 01:54:00,
2013-06-26 22:00:00,69.3,0.0,29.89,North,0,3.0,8.0,0,0.01,,,0.91,Weather View 32 v70,2013-06-27 02:00:00,